GW4285 Weather Reports


Display with metric or nautical units.
time (UTC)temp
F
wind
direction
speed
MPH
gust
MPH
rain 1hr
in
rain 24hr
in
rain mn
in
humidity
%
barometer
mb
20260506042201 53 255 0.0 1.0 0.00 0.03 0.03 95 1017.5
20260506041659 53 245 1.0 4.0 0.00 0.03 0.03 95 1017.4
20260506041155 53 232 0.0 1.0 0.00 0.03 0.03 95 1017.3
20260506040653 53 261 1.0 3.0 0.00 0.03 0.03 95 1017.4
20260506040150 54 242 1.0 3.0 0.00 0.03 0.03 95 1017.3
20260506035647 54 237 0.0 3.0 0.00 0.03 0.03 94 1017.2
20260506035143 54 245 0.0 1.0 0.00 0.03 0.03 94 1017.1
20260506034640 54 231 0.0 3.0 0.00 0.03 0.03 94 1017.2
20260506034137 54 238 0.0 3.0 0.00 0.03 0.03 94 1017.1
20260506033635 54 241 0.0 4.0 0.00 0.03 0.03 93 1017.1
20260506033131 54 246 0.0 3.0 0.00 0.03 0.03 93 1017.0
20260506032629 54 197 0.0 4.0 0.00 0.03 0.03 93 1016.9
20260506032126 55 244 0.0 0.0 0.00 0.03 0.03 92 1016.6
20260506031623 55 248 3.0 3.0 0.00 0.03 0.03 91 1016.6
20260506031119 55 252 0.0 0.0 0.00 0.03 0.03 91 1016.5
20260506030618 55 246 0.0 0.0 0.00 0.03 0.03 91 1016.4
20260506030115 55 247 0.0 0.0 0.00 0.03 0.03 90 1016.4
20260506025612 55 225 0.0 1.0 0.00 0.03 0.03 89 1016.4
20260506025107 55 258 0.0 0.0 0.00 0.03 0.03 89 1016.3
20260506024605 55 263 0.0 3.0 0.00 0.03 0.03 88 1016.4
20260506024101 55 251 0.0 3.0 0.00 0.03 0.03 88 1016.3
20260506023557 56 281 5.0 5.0 0.00 0.03 0.03 87 1016.6
20260506023055 56 256 1.0 5.0 0.00 0.03 0.03 86 1016.3
20260506022552 56 253 10.0 11.0 0.00 0.03 0.03 85 1016.2
20260506022050 56 272 3.0 5.0 0.00 0.03 0.03 86 1016.2
20260506021547 56 248 5.0 8.0 0.00 0.03 0.03 85 1016.1
20260506021044 56 248 6.0 10.0 0.00 0.03 0.03 85 1016.2
20260506020542 56 248 7.0 10.0 0.00 0.03 0.03 85 1016.1
20260506020039 56 243 4.0 8.0 0.00 0.03 0.03 85 1016.0
20260506015536 57 258 4.0 8.0 0.00 0.03 0.03 83 1015.9
20260506015033 57 260 6.0 8.0 0.00 0.03 0.03 84 1016.0
20260506014530 57 258 7.0 8.0 0.00 0.03 0.03 83 1015.9
20260506014026 57 263 5.0 5.0 0.00 0.03 0.03 83 1015.8
20260506013525 58 230 3.0 4.0 0.00 0.03 0.03 83 1015.8
20260506013021 58 260 0.0 5.0 0.00 0.03 0.03 82 1015.8
20260506012517 58 275 5.0 7.0 0.00 0.03 0.03 83 1015.7
20260506012014 58 251 1.0 7.0 0.00 0.03 0.03 83 1015.7
20260506011512 58 276 4.0 5.0 0.00 0.03 0.03 82 1015.7
20260506011008 57 276 2.0 5.0 0.00 0.03 0.03 83 1015.7
20260506010507 57 271 2.0 10.0 0.00 0.03 0.03 83 1015.8
20260506010003 58 238 2.0 5.0 0.00 0.03 0.03 83 1015.8
20260506005500 58 279 6.0 8.0 0.00 0.03 0.03 82 1015.7
20260506004955 58 237 3.0 10.0 0.00 0.03 0.03 82 1015.8
20260506004454 58 240 9.0 11.0 0.00 0.03 0.03 82 1015.7
20260506003949 59 259 8.0 10.0 0.00 0.03 0.03 81 1015.8
20260506003446 59 264 5.0 5.0 0.00 0.03 0.03 82 1015.6
20260506002942 59 252 5.0 11.0 0.00 0.03 0.03 82 1015.6
20260506002439 59 237 6.0 12.0 0.00 0.03 0.03 82 1015.5
20260506001934 60 268 2.0 4.0 0.00 0.03 0.03 82 1015.4
20260506001432 59 256 5.0 7.0 0.00 0.03 0.03 81 1015.5
20260506000929 59 260 5.0 8.0 0.00 0.03 0.03 82 1015.5
20260506000426 60 272 3.0 7.0 0.00 0.03 0.03 81 1015.5
20260505235923 60 247 2.0 8.0 0.00 0.03 0.03 81 1015.4
20260505235421 60 240 3.0 8.0 0.00 0.03 0.03 81 1015.4
20260505234917 60 267 5.0 7.0 0.00 0.03 0.03 80 1015.4
20260505234415 60 259 6.0 10.0 0.00 0.03 0.03 81 1015.5
20260505233912 60 265 8.0 10.0 0.00 0.03 0.03 80 1015.4
20260505233409 60 240 7.0 11.0 0.00 0.03 0.03 80 1015.5
20260505232907 60 286 6.0 10.0 0.00 0.03 0.03 81 1015.3
20260505232404 60 248 7.0 11.0 0.00 0.03 0.03 81 1015.4
20260505231901 60 266 5.0 5.0 0.00 0.03 0.03 81 1015.3
20260505231358 60 239 5.0 8.0 0.00 0.03 0.03 81 1015.4
20260505230857 61 253 4.0 7.0 0.00 0.03 0.03 81 1015.4
20260505230354 61 260 1.0 5.0 0.00 0.03 0.03 81 1015.3
20260505225850 61 261 4.0 5.0 0.00 0.03 0.03 79 1015.4
20260505225348 61 249 2.0 7.0 0.00 0.03 0.03 80 1015.3
20260505224842 62 277 4.0 5.0 0.00 0.03 0.03 80 1015.3
20260505224341 63 245 1.0 1.0 0.00 0.03 0.03 79 1015.3
20260505223837 63 272 1.0 4.0 0.00 0.03 0.03 77 1015.4
20260505223334 64 261 1.0 3.0 0.00 0.03 0.03 78 1015.4
20260505222830 63 277 0.0 4.0 0.00 0.03 0.03 79 1015.4
20260505222326 62 259 1.0 5.0 0.00 0.03 0.03 78 1015.4
20260505221824 63 261 3.0 7.0 0.00 0.03 0.03 77 1015.4
20260505221320 63 253 1.0 7.0 0.00 0.03 0.03 78 1015.4
20260505220817 62 255 2.0 5.0 0.00 0.03 0.03 78 1015.4
20260505220314 62 265 4.0 5.0 0.00 0.03 0.03 79 1015.5
20260505215813 62 240 3.0 8.0 0.00 0.03 0.03 79 1015.4
20260505215310 62 272 3.0 5.0 0.00 0.03 0.03 79 1015.6
20260505214808 62 263 3.0 4.0 0.00 0.03 0.03 80 1015.5
20260505214305 61 260 5.0 7.0 0.00 0.03 0.03 80 1015.5
20260505213802 61 243 6.0 7.0 0.00 0.03 0.03 79 1015.7
20260505213300 62 231 6.0 10.0 0.00 0.03 0.03 80 1015.7
20260505212755 62 224 0.0 5.0 0.00 0.03 0.03 79 1015.6
20260505212253 61 250 7.0 8.0 0.00 0.03 0.03 79 1015.8
20260505211749 62 250 1.0 7.0 0.00 0.03 0.03 79 1015.6
20260505211247 61 247 3.0 5.0 0.00 0.03 0.03 79 1015.8
20260505210743 61 257 5.0 7.0 0.00 0.03 0.03 79 1015.8
20260505210240 62 245 3.0 7.0 0.00 0.03 0.03 78 1015.8
20260505205737 61 262 4.0 7.0 0.00 0.03 0.03 81 1015.8
20260505205235 61 270 0.0 0.0 0.00 0.03 0.03 80 1015.9
20260505204731 61 262 4.0 5.0 0.00 0.03 0.03 80 1015.8
20260505204229 62 237 0.0 1.0 0.00 0.03 0.03 78 1015.7
20260505203726 61 233 0.0 0.0 0.00 0.03 0.03 79 1015.9
20260505203223 61 234 0.0 4.0 0.00 0.03 0.03 80 1015.6
20260505202719 62 244 2.0 8.0 0.00 0.03 0.03 79 1015.7
20260505202215 62 259 3.0 4.0 0.00 0.03 0.03 78 1015.8
20260505201712 61 267 1.0 3.0 0.00 0.03 0.03 81 1015.8
20260505201210 62 254 1.0 1.0 0.00 0.03 0.03 80 1015.9
20260505200708 61 236 3.0 5.0 0.00 0.03 0.03 79 1015.9
20260505200204 61 246 3.0 8.0 0.00 0.03 0.03 80 1015.9
20260505195700 61 240 2.0 5.0 0.00 0.03 0.03 82 1015.8
20260505195158 60 260 0.0 3.0 0.00 0.03 0.03 81 1016.0
20260505194655 60 248 3.0 4.0 0.00 0.03 0.03 81 1015.9
20260505194151 60 266 3.0 5.0 0.00 0.03 0.03 81 1016.0
20260505193647 60 257 1.0 4.0 0.00 0.03 0.03 84 1015.8
20260505193144 60 254 3.0 4.0 0.00 0.03 0.03 82 1015.9
20260505192643 60 267 3.0 7.0 0.00 0.03 0.03 82 1015.9
20260505192140 59 242 2.0 4.0 0.00 0.03 0.03 82 1015.9
20260505191639 60 249 3.0 5.0 0.00 0.03 0.03 82 1015.9
20260505191136 59 255 0.0 4.0 0.00 0.03 0.03 83 1015.9
20260505190632 59 244 5.0 5.0 0.00 0.03 0.03 83 1015.9
20260505190127 59 253 3.0 7.0 0.00 0.03 0.03 82 1016.0
20260505185624 59 237 4.0 7.0 0.00 0.03 0.03 81 1015.8
20260505185120 59 240 3.0 5.0 0.00 0.03 0.03 79 1015.7
20260505184617 59 259 4.0 4.0 0.00 0.03 0.03 80 1015.8
20260505184114 59 248 4.0 5.0 0.00 0.03 0.03 80 1015.9
20260505183610 60 250 1.0 4.0 0.00 0.03 0.03 81 1015.8
20260505183108 60 255 2.0 4.0 0.00 0.03 0.03 82 1015.8
20260505182604 61 254 5.0 8.0 0.00 0.03 0.03 79 1015.8
20260505182101 61 261 3.0 4.0 0.00 0.03 0.03 78 1015.8
20260505181558 60 259 0.0 1.0 0.07 0.03 0.03 82 1015.8
20260505181055 59 249 1.0 4.0 0.07 0.03 0.03 84 1015.7
20260505180550 59 255 0.0 3.0 0.00 0.02 0.02 81 1015.8
20260505180049 59 250 3.0 4.0 0.00 0.02 0.02 84 1015.8
20260505175549 58 248 1.0 3.0 0.00 0.02 0.02 86 1015.7
20260505175046 58 263 0.0 1.0 0.00 0.02 0.02 86 1015.8
20260505174538 57 263 0.0 0.0 0.00 0.02 0.02 88 1015.6
20260505174034 57 262 2.0 3.0 0.00 0.02 0.02 87 1015.6
20260505173531 57 247 0.0 1.0 0.00 0.02 0.02 88 1015.5
20260505173028 57 230 3.0 4.0 0.00 0.02 0.02 88 1015.4
20260505172526 56 251 0.0 4.0 0.00 0.02 0.02 90 1015.4
20260505172021 56 252 0.0 3.0 0.00 0.02 0.02 89 1015.4
20260505171517 56 244 3.0 5.0 0.00 0.02 0.02 89 1015.4
20260505171014 56 253 0.0 3.0 0.00 0.02 0.02 90 1015.5
20260505170510 56 240 0.0 3.0 0.00 0.02 0.02 91 1015.6
20260505170006 56 254 0.0 3.0 0.00 0.02 0.02 90 1015.5
20260505165501 57 257 0.0 0.0 0.00 0.02 0.02 90 1015.5
20260505164957 56 257 0.0 0.0 0.00 0.02 0.02 92 1015.4
20260505164454 55 256 0.0 1.0 0.00 0.02 0.02 91 1015.5
20260505163952 55 259 1.0 3.0 0.00 0.02 0.02 93 1015.5
20260505163450 55 259 0.0 4.0 0.00 0.02 0.02 92 1015.5
20260505162950 55 246 0.0 3.0 0.00 0.02 0.02 93 1015.5
20260505162445 54 253 0.0 1.0 0.00 0.02 0.02 95 1015.5
20260505161941 54 252 0.0 0.0 0.00 0.02 0.02 96 1015.4
20260505161438 54 253 0.0 0.0 0.00 0.02 0.02 99 1015.3
20260505160936 53 248 0.0 0.0 0.00 0.02 0.02 99 1015.3
20260505160434 53 249 0.0 1.0 0.00 0.02 0.02 99 1015.3
20260505152910 53 238 0.0 0.0 0.00 0.02 0.02 99 1015.0
20260505152407 52 238 0.0 0.0 0.00 0.02 0.02 99 1014.9
20260505151907 52 238 0.0 0.0 0.00 0.02 0.02 99 1014.8
20260505151404 53 238 0.0 0.0 0.00 0.02 0.02 99 1014.9
20260505150901 52 238 0.0 0.0 0.00 0.02 0.02 99 1014.9
20260505150358 52 238 0.0 0.0 0.00 0.02 0.02 99 1014.8
20260505140317 52 239 0.0 0.0 0.00 0.02 0.02 99 1014.4
20260505130240 51 238 0.0 0.0 0.00 0.02 0.02 99 1014.1
20260505124730 51 238 0.0 0.0 0.00 0.02 0.02 99 1014.1
20260505124227 51 238 0.0 0.0 0.00 0.02 0.02 99 1013.9
20260505123722 51 238 0.0 0.0 0.00 0.02 0.02 99 1014.0
20260505123220 51 238 0.0 0.0 0.00 0.02 0.02 99 1014.0
20260505122716 51 247 0.0 0.0 0.00 0.02 0.02 99 1014.0
20260505122214 51 247 0.0 0.0 0.00 0.02 0.02 99 1014.1
20260505121710 51 247 0.0 0.0 0.00 0.02 0.02 99 1013.9
20260505121207 51 247 0.0 0.0 0.00 0.02 0.02 99 1014.0
20260505120703 51 247 0.0 0.0 0.00 0.02 0.02 99 1014.0
20260505120159 51 247 0.0 0.0 0.00 0.02 0.02 99 1014.0
20260505115658 51 247 0.0 0.0 0.00 0.02 0.02 99 1013.9
20260505115156 51 247 0.0 0.0 0.00 0.02 0.02 99 1014.0
20260505114653 51 247 0.0 0.0 0.00 0.02 0.02 99 1014.0
20260505114149 51 247 0.0 0.0 0.00 0.02 0.02 99 1013.9
20260505113646 51 247 0.0 0.0 0.00 0.02 0.02 99 1014.1
20260505113143 51 247 0.0 0.0 0.00 0.02 0.02 99 1014.1
20260505112639 51 257 1.0 1.0 0.00 0.02 0.02 99 1014.1
20260505112138 51 250 0.0 0.0 0.00 0.02 0.02 99 1014.2
20260505111637 51 250 0.0 0.0 0.00 0.02 0.02 99 1014.3
20260505111133 51 250 0.0 0.0 0.00 0.02 0.02 99 1014.2
20260505110629 51 250 0.0 0.0 0.00 0.02 0.02 99 1014.2
20260505110127 51 235 0.0 0.0 0.00 0.02 0.02 99 1014.4
20260505102102 51 232 0.0 0.0 0.00 0.02 0.02 99 1014.4
20260505101601 51 232 0.0 0.0 0.00 0.02 0.02 99 1014.3
20260505101056 51 232 0.0 0.0 0.00 0.02 0.02 99 1014.5
20260505100553 51 232 0.0 0.0 0.00 0.02 0.02 99 1014.5
20260505100050 51 234 0.0 0.0 0.00 0.02 0.02 99 1014.4
20260505095546 51 233 0.0 0.0 0.00 0.02 0.02 99 1014.2
20260505095043 51 235 0.0 0.0 0.00 0.02 0.02 99 1014.2
20260505094539 51 235 0.0 0.0 0.00 0.02 0.02 99 1014.2
20260505094036 51 247 0.0 0.0 0.00 0.02 0.02 99 1014.3
20260505093532 51 247 0.0 0.0 0.00 0.02 0.02 99 1014.4
20260505093030 51 251 0.0 0.0 0.00 0.02 0.02 99 1014.3
20260505092527 51 252 0.0 0.0 0.00 0.02 0.02 99 1014.4
20260505092025 51 242 0.0 0.0 0.00 0.02 0.02 99 1014.2
20260505091522 51 245 0.0 0.0 0.00 0.02 0.02 99 1014.0
20260505091020 51 262 0.0 0.0 0.00 0.02 0.02 99 1014.3
20260505090518 51 262 0.0 0.0 0.00 0.02 0.02 99 1014.5
20260505090015 51 255 0.0 0.0 0.00 0.02 0.02 99 1014.7
20260505085513 51 258 0.0 0.0 0.00 0.02 0.02 99 1014.7
20260505085011 51 256 0.0 0.0 0.00 0.02 0.02 99 1014.7
20260505084509 51 255 0.0 0.0 0.00 0.02 0.02 99 1014.8
20260505084007 51 228 0.0 0.0 0.00 0.02 0.02 99 1014.8
20260505083504 51 238 0.0 0.0 0.00 0.02 0.02 99 1014.9
20260505083000 51 242 0.0 0.0 0.00 0.02 0.02 99 1014.8
20260505082455 51 242 0.0 0.0 0.00 0.02 0.02 99 1014.8
20260505081953 51 241 0.0 0.0 0.00 0.02 0.02 99 1014.8
20260505081449 51 241 0.0 0.0 0.00 0.02 0.02 99 1014.8
20260505080946 51 239 0.0 0.0 0.00 0.02 0.02 99 1014.8
20260505080442 51 239 0.0 0.0 0.00 0.02 0.02 99 1015.0
20260505075938 51 239 0.0 0.0 0.00 0.02 0.02 99 1014.8
20260505075435 51 239 0.0 0.0 0.00 0.02 0.02 99 1015.1
20260505074932 51 256 0.0 0.0 0.00 0.02 0.02 99 1015.2
20260505074430 51 258 0.0 0.0 0.00 0.02 0.02 99 1015.0
20260505073926 51 245 0.0 0.0 0.00 0.02 0.02 99 1015.0
20260505073424 51 237 0.0 0.0 0.05 0.02 0.02 99 1015.0
20260505072921 51 238 0.0 0.0 0.05 0.02 0.02 99 1015.2
20260505072417 51 253 0.0 0.0 0.00 0.01 0.01 99 1015.2
20260505071914 51 260 0.0 0.0 0.00 0.01 0.01 99 1015.2
20260505071410 51 222 0.0 1.0 0.00 0.01 0.01 99 1015.2
20260505070908 51 250 0.0 0.0 0.07 0.01 0.01 99 1015.0
20260505070404 51 238 0.0 1.0 0.19 0.01 0.01 99 1014.9
20260505065900 51 261 0.0 1.0 0.14 0.53 0.53 99 1015.1
20260505065356 51 255 1.0 3.0 0.07 0.52 0.52 99 1015.1
20260505064853 51 254 0.0 0.0 0.00 0.51 0.51 99 1015.3
20260505064350 51 251 0.0 1.0 0.05 0.51 0.51 99 1015.4
20260505063849 51 251 0.0 0.0 0.12 0.51 0.51 99 1015.3
20260505063344 51 223 1.0 1.0 0.24 0.50 0.50 99 1015.2
20260505062841 51 262 0.0 3.0 0.24 0.48 0.48 99 1015.1
20260505062339 51 244 0.0 0.0 0.24 0.46 0.46 99 1015.2
20260505061835 51 249 0.0 0.0 0.19 0.44 0.44 99 1015.3
20260505061333 51 265 0.0 0.0 0.14 0.42 0.42 99 1015.3
20260505060831 51 269 0.0 0.0 0.12 0.41 0.41 99 1015.0
20260505060327 51 254 2.0 3.0 0.12 0.40 0.40 99 1015.4
20260505055823 51 253 3.0 3.0 0.07 0.39 0.39 99 1015.5
20260505055319 51 251 0.0 0.0 0.00 0.38 0.38 99 1015.6
20260505054817 51 232 0.0 0.0 0.00 0.38 0.38 99 1015.4
20260505054314 51 235 0.0 0.0 0.00 0.38 0.38 99 1015.4
20260505053812 51 256 0.0 0.0 0.00 0.38 0.38 99 1015.5
20260505053309 51 231 0.0 0.0 0.00 0.38 0.38 99 1015.4
20260505052806 51 261 0.0 0.0 0.05 0.38 0.38 99 1015.3
20260505052304 51 218 0.0 0.0 0.00 0.37 0.37 99 1015.3
20260505051759 51 266 0.0 0.0 0.00 0.37 0.37 99 1015.4
20260505051257 51 266 0.0 0.0 0.00 0.37 0.37 99 1015.2
20260505050755 51 249 0.0 3.0 0.00 0.37 0.37 99 1015.4
20260505050254 51 263 0.0 0.0 0.00 0.37 0.37 99 1015.6